CW6617 Weather Reports


time (UTC)temp
F
wind
direction
speed
knots
gust
knots
rain 1hr
in
rain 24hr
in
rain mn
in
humidity
%
barometer
mb
20260510161704 56 48 7.8 14.8 0.00 0.00 0.00 63 1014.7
20260510161203 56 19 5.2 13.9 0.00 0.00 0.00 65 1014.8
20260510160704 56 1 7.8 13.9 0.00 0.00 0.00 65 1014.8
20260510160204 55 20 5.2 14.8 0.00 0.00 0.00 66 1014.9
20260510154703 54 36 4.3 11.3 0.00 0.00 0.00 69 1015.2
20260510153704 54 37 6.1 18.2 0.00 0.00 0.00 69 1015.4
20260510153204 54 2 7.8 13.9 0.00 0.00 0.00 68 1015.3
20260510151704 54 45 4.3 13.0 0.00 0.00 0.00 69 1015.4
20260510151203 54 55 6.1 11.3 0.00 0.00 0.00 68 1015.4
20260510150704 54 52 4.3 10.4 0.00 0.00 0.00 69 1015.5
20260510150203 54 42 4.3 17.4 0.00 0.00 0.00 69 1015.5
20260510144703 55 68 6.1 12.2 0.00 0.00 0.00 69 1015.6
20260510144204 55 41 4.3 8.7 0.00 0.00 0.00 70 1015.7
20260510143703 55 18 1.7 7.0 0.00 0.00 0.00 71 1015.7
20260510143204 55 79 5.2 14.8 0.00 0.00 0.00 70 1015.8
20260510141203 55 67 8.7 12.2 0.00 0.00 0.00 69 1016.0
20260510140204 54 52 8.7 15.6 0.00 0.00 0.00 71 1015.9
20260510134704 54 51 6.1 13.9 0.00 0.00 0.00 71 1016.1
20260510134204 55 357 7.0 13.0 0.00 0.00 0.00 71 1016.1
20260510133705 55 49 7.8 13.9 0.00 0.00 0.00 71 1016.0
20260510133204 55 31 2.6 15.6 0.00 0.00 0.00 71 1016.0
20260510131704 55 34 9.6 18.2 0.00 0.00 0.00 70 1016.0
20260510131204 55 54 8.7 15.6 0.00 0.00 0.00 71 1016.0
20260510130203 55 42 6.1 15.6 0.00 0.00 0.00 71 1016.2
20260510124705 55 44 4.3 11.3 0.00 0.00 0.00 73 1016.3
20260510123704 55 32 7.8 13.0 0.00 0.00 0.00 72 1016.4
20260510123204 56 2 7.8 14.8 0.00 0.00 0.00 72 1016.4
20260510121705 55 63 7.0 14.8 0.00 0.00 0.00 73 1016.5
20260510121203 55 46 9.6 15.6 0.00 0.00 0.00 72 1016.6
20260510120704 56 345 4.3 13.0 0.00 0.00 0.00 72 1016.5
20260510120203 56 2 8.7 13.9 0.00 0.00 0.00 70 1016.5
20260510114704 56 50 7.8 13.0 0.00 0.00 0.00 71 1016.5
20260510113703 56 21 5.2 11.3 0.00 0.00 0.00 71 1016.6
20260510111703 57 65 6.1 14.8 0.00 0.00 0.00 69 1016.8
20260510111204 57 53 9.6 18.2 0.00 0.00 0.00 68 1016.8
20260510110704 57 32 2.6 7.8 0.00 0.00 0.00 71 1016.8
20260510110204 56 57 8.7 17.4 0.00 0.00 0.00 69 1016.8
20260510104704 56 34 10.4 17.4 0.00 0.00 0.00 70 1016.9
20260510104204 57 332 5.2 13.0 0.00 0.00 0.00 71 1016.9
20260510103703 56 47 8.7 15.6 0.00 0.00 0.00 71 1016.9
20260510101704 57 49 7.8 12.2 0.00 0.00 0.00 68 1017.0
20260510101204 58 57 6.1 17.4 0.00 0.00 0.00 67 1017.0
20260510100704 57 46 8.7 15.6 0.00 0.00 0.00 67 1016.9
20260510100204 57 40 5.2 17.4 0.00 0.00 0.00 70 1017.0
20260510093704 54 65 6.1 20.0 0.00 0.00 0.00 72 1017.2
20260510093203 55 47 10.4 18.2 0.00 0.00 0.00 71 1017.2
20260510090704 54 51 8.7 17.4 0.00 0.00 0.00 73 1017.3
20260510090204 54 51 6.1 14.8 0.00 0.00 0.00 74 1017.4
20260510084703 53 50 10.4 17.4 0.00 0.00 0.00 76 1017.6
20260510084204 53 44 9.6 13.9 0.00 0.00 0.00 76 1017.6
20260510081704 52 30 7.8 13.9 0.00 0.00 0.00 79 1017.6
20260510080704 52 1 3.5 8.7 0.00 0.00 0.00 80 1017.7
20260510073704 51 61 5.2 11.3 0.00 0.00 0.00 82 1017.8
20260510071703 50 23 6.1 12.2 0.00 0.00 0.00 83 1017.6
20260510071204 50 51 4.3 11.3 0.00 0.00 0.00 84 1017.6
20260510070703 50 56 3.5 11.3 0.00 0.00 0.00 84 1017.5
20260510070204 50 50 4.3 13.9 0.00 0.00 0.00 84 1017.5
20260510064704 50 56 5.2 11.3 0.00 0.00 0.00 85 1017.5
20260510064204 50 45 5.2 11.3 0.00 0.00 0.00 85 1017.5
20260510063704 49 55 7.8 12.2 0.00 0.00 0.00 85 1017.6
20260510061704 49 39 5.2 10.4 0.00 0.00 0.00 86 1017.3
20260510061204 49 52 5.2 11.3 0.00 0.00 0.00 87 1017.3
20260510060703 49 36 3.5 11.3 0.00 0.00 0.00 86 1017.2
20260510054704 49 344 4.3 8.7 0.00 0.00 0.00 87 1017.2
20260510053704 49 49 5.2 11.3 0.00 0.00 0.00 87 1017.3
20260510053204 49 47 4.3 13.0 0.00 0.00 0.00 87 1017.3
20260510051204 49 21 4.3 8.7 0.00 0.00 0.00 87 1017.3
20260510050704 49 51 3.5 14.8 0.00 0.00 0.00 87 1017.3
20260510050204 48 46 3.5 12.2 0.00 0.00 0.00 87 1017.3
20260510044704 48 34 4.3 11.3 0.00 0.00 0.00 87 1017.3
20260510044204 48 31 6.1 12.2 0.00 0.00 0.00 87 1017.2
20260510043704 48 42 4.3 11.3 0.00 0.00 0.00 88 1017.2
20260510043204 48 15 4.3 11.3 0.00 0.00 0.00 88 1017.3
20260510041704 48 32 3.5 11.3 0.00 0.00 0.00 88 1017.4
20260510041204 48 53 2.6 11.3 0.00 0.00 0.00 87 1017.3
20260510040704 48 52 3.5 7.8 0.00 0.00 0.00 87 1017.3
20260510040203 48 341 2.6 11.3 0.00 0.00 0.00 88 1017.4
20260510034203 48 62 5.2 11.3 0.00 0.00 0.00 87 1017.5
20260510033204 49 52 2.6 11.3 0.00 0.00 0.00 87 1017.6
20260510030703 49 23 4.3 11.3 0.00 0.00 0.00 87 1017.7
20260510030204 49 8 3.5 12.2 0.00 0.00 0.00 87 1017.8
20260510024703 49 41 3.5 10.4 0.00 0.00 0.00 86 1017.7
20260510024203 49 60 2.6 7.8 0.00 0.00 0.00 87 1017.7
20260510023704 49 17 2.6 7.0 0.00 0.00 0.00 86 1017.7
20260510023204 49 68 3.5 11.3 0.00 0.00 0.00 86 1017.7
20260510021704 49 67 1.7 7.0 0.00 0.00 0.00 86 1017.8
20260510020704 49 57 4.3 8.7 0.00 0.00 0.00 85 1017.7
20260510020204 50 55 4.3 13.0 0.00 0.00 0.00 85 1017.6
20260510014703 50 335 2.6 8.7 0.00 0.00 0.00 84 1017.6
20260510014204 50 1 1.7 7.8 0.00 0.00 0.00 84 1017.6
20260510013704 50 24 6.1 10.4 0.00 0.00 0.00 83 1017.7
20260510013204 50 39 2.6 11.3 0.00 0.00 0.00 82 1017.7
20260510011204 51 51 3.5 7.0 0.00 0.00 0.00 78 1018.0
20260510010204 51 10 2.6 13.0 0.00 0.00 0.00 74 1017.7
20260510004704 52 6 2.6 6.1 0.00 0.00 0.00 69 1017.7
20260510004204 52 3 4.3 6.1 0.00 0.00 0.00 68 1017.8
20260510003704 52 12 3.5 12.2 0.00 0.00 0.00 67 1017.7
20260510003204 52 10 5.2 11.3 0.00 0.00 0.00 67 1017.7
20260510001703 53 23 0.9 7.8 0.00 0.00 0.00 67 1017.7
20260509234703 54 57 2.6 11.3 0.00 0.00 0.00 65 1017.6
20260509234204 54 45 3.5 11.3 0.00 0.00 0.00 64 1017.5
20260509231203 55 40 4.3 10.4 0.00 0.00 0.00 61 1017.5
20260509230203 55 39 3.5 11.3 0.00 0.00 0.00 61 1017.6
20260509224704 55 44 2.6 7.8 0.00 0.00 0.00 61 1017.5
20260509224204 55 35 2.6 8.7 0.00 0.00 0.00 61 1017.4
20260509223704 55 55 4.3 7.0 0.00 0.00 0.00 61 1017.4
20260509223204 55 21 1.7 11.3 0.00 0.00 0.00 61 1017.5
20260509221704 55 70 1.7 4.3 0.00 0.00 0.00 59 1017.5
20260509221204 55 37 0.9 2.6 0.00 0.00 0.00 59 1017.4
20260509220704 55 41 0.9 1.7 0.00 0.00 0.00 59 1017.4
20260509220204 55 38 1.7 5.2 0.00 0.00 0.00 58 1017.4
20260509214705 56 36 1.7 4.3 0.00 0.00 0.00 57 1017.5
20260509214204 56 60 1.7 4.3 0.00 0.00 0.00 57 1017.6
20260509213705 56 68 1.7 6.1 0.00 0.00 0.00 56 1017.6
20260509213204 56 115 0.9 7.8 0.00 0.00 0.00 56 1017.6
20260509211705 57 78 2.6 7.8 0.00 0.00 0.00 56 1017.5
20260509211204 57 92 3.5 6.1 0.00 0.00 0.00 56 1017.3
20260509210704 57 72 1.7 5.2 0.00 0.00 0.00 55 1017.2
20260509210204 58 18 1.7 7.0 0.00 0.00 0.00 56 1017.2
20260509204704 58 69 2.6 7.8 0.00 0.00 0.00 55 1017.1
20260509204204 58 51 1.7 7.0 0.00 0.00 0.00 55 1017.1
20260509203703 59 45 3.5 6.1 0.00 0.00 0.00 55 1017.1
20260509203203 59 67 3.5 7.8 0.00 0.00 0.00 55 1017.0
20260509201703 59 89 0.9 6.1 0.00 0.00 0.00 54 1017.0
20260509201204 60 55 2.6 6.1 0.00 0.00 0.00 54 1016.9
20260509200703 60 62 2.6 8.7 0.00 0.00 0.00 54 1016.8
20260509200204 60 54 1.7 6.1 0.00 0.00 0.00 53 1016.9
20260509194703 61 42 1.7 6.1 0.00 0.00 0.00 53 1016.7
20260509194204 61 109 2.6 8.7 0.00 0.00 0.00 52 1016.7
20260509193704 61 120 0.9 2.6 0.00 0.00 0.00 52 1016.6
20260509193203 61 104 1.7 6.1 0.00 0.00 0.00 52 1016.6
20260509191704 62 86 3.5 8.7 0.00 0.00 0.00 50 1016.5
20260509191204 62 98 2.6 7.8 0.00 0.00 0.00 50 1016.5
20260509190703 63 95 5.2 7.8 0.00 0.00 0.00 50 1016.4
20260509190204 63 47 2.6 11.3 0.00 0.00 0.00 49 1016.4
20260509183704 65 112 2.6 7.8 0.00 0.00 0.00 47 1016.2
20260509183203 65 105 5.2 10.4 0.00 0.00 0.00 46 1016.1
20260509181204 67 108 4.3 10.4 0.00 0.00 0.00 45 1016.0
20260509180704 67 69 5.2 11.3 0.00 0.00 0.00 46 1016.0
20260509174704 67 69 5.2 8.7 0.00 0.00 0.00 45 1015.8
20260509174204 68 91 4.3 8.7 0.00 0.00 0.00 46 1015.7
20260509173703 68 58 4.3 10.4 0.00 0.00 0.00 45 1015.8
20260509173203 68 100 4.3 11.3 0.00 0.00 0.00 46 1015.7
20260509171704 69 77 5.2 10.4 0.00 0.00 0.00 44 1015.7
20260509171203 69 97 2.6 7.8 0.00 0.00 0.00 44 1015.7
20260509170704 69 57 5.2 8.7 0.00 0.00 0.00 42 1015.8
20260509170203 70 85 2.6 12.2 0.00 0.00 0.00 43 1015.8
20260509164703 71 75 2.6 8.7 0.00 0.00 0.00 41 1015.8
20260509164203 72 88 2.6 11.3 0.00 0.00 0.00 41 1015.8
20260509163704 72 71 5.2 11.3 0.00 0.00 0.00 41 1015.7
20260509163204 72 60 3.5 11.3 0.00 0.00 0.00 40 1015.7